Previsão horária em Almargen

Hoje, 22 Janeiro, Sexta-feira

Tempo Temperatura Precipitação Vento Pressão Humidade
00:00 +9°C° 0 mm 3 m/s 708 mmHg 91%
01:00 +10°C° 0.1 mm 4 m/s 708 mmHg 92%
02:00 +10°C° 0.1 mm 4 m/s 707 mmHg 93%
03:00 +9°C° 0.1 mm 5 m/s 707 mmHg 94%
04:00 +10°C° 0.4 mm 6 m/s 707 mmHg 94%
05:00 +10°C° 0.4 mm 7 m/s 707 mmHg 93%
06:00 +10°C° 0.4 mm 7 m/s 707 mmHg 93%
07:00 +10°C° 0.1 mm 8 m/s 707 mmHg 92%
08:00 +10°C° 0.1 mm 8 m/s 708 mmHg 91%
09:00 +10°C° 0.1 mm 8 m/s 708 mmHg 90%
10:00 +10°C° 0.1 mm 8 m/s 708 mmHg 85%
11:00 +10°C° 0.1 mm 8 m/s 708 mmHg 81%
12:00 +10°C° 0.1 mm 9 m/s 708 mmHg 77%
13:00 +8°C° 0.1 mm 9 m/s 708 mmHg 77%
14:00 +8°C° 0.1 mm 9 m/s 708 mmHg 77%
15:00 +8°C° 0.1 mm 9 m/s 708 mmHg 77%
16:00 +7°C° 0.1 mm 8 m/s 708 mmHg 79%
17:00 +6°C° 0.1 mm 7 m/s 708 mmHg 81%
18:00 +7°C° 0.1 mm 6 m/s 708 mmHg 83%
19:00 +6°C° 0 mm 5 m/s 709 mmHg 85%
20:00 +6°C° 0 mm 4 m/s 709 mmHg 87%
21:00 +6°C° 0 mm 4 m/s 710 mmHg 90%
22:00 +5°C° 0 mm 4 m/s 710 mmHg 91%
23:00 +5°C° 0 mm 4 m/s 710 mmHg 92%

Amanhã, 23 Janeiro, Sábado

Tempo Temperatura Precipitação Vento Pressão Humidade
00:00 +5°C° 0 mm 4 m/s 710 mmHg 94%
01:00 +4°C° 0 mm 4 m/s 710 mmHg 94%
02:00 +4°C° 0 mm 3 m/s 710 mmHg 94%
03:00 +4°C° 0 mm 3 m/s 710 mmHg 94%
04:00 +4°C° 0 mm 3 m/s 710 mmHg 94%
05:00 +4°C° 0 mm 3 m/s 710 mmHg 94%
06:00 +5°C° 0 mm 2 m/s 709 mmHg 94%
07:00 +6°C° 0 mm 2 m/s 710 mmHg 91%
08:00 +5°C° 0 mm 3 m/s 710 mmHg 89%
09:00 +7°C° 0 mm 3 m/s 710 mmHg 87%
10:00 +7°C° 0 mm 4 m/s 710 mmHg 83%
11:00 +8°C° 0 mm 5 m/s 710 mmHg 78%
12:00 +9°C° 0 mm 6 m/s 710 mmHg 74%
13:00 +9°C° 0.1 mm 5 m/s 710 mmHg 76%
14:00 +9°C° 0.1 mm 5 m/s 709 mmHg 78%
15:00 +9°C° 0.1 mm 5 m/s 708 mmHg 80%
16:00 +9°C° 0 mm 5 m/s 708 mmHg 83%
17:00 +8°C° 0 mm 5 m/s 708 mmHg 86%
18:00 +8°C° 0 mm 4 m/s 708 mmHg 88%
19:00 +8°C° 0 mm 4 m/s 708 mmHg 89%
20:00 +8°C° 0 mm 5 m/s 708 mmHg 89%
21:00 +8°C° 0 mm 5 m/s 708 mmHg 90%
22:00 +8°C° 0.1 mm 5 m/s 707 mmHg 91%
23:00 +8°C° 0.1 mm 5 m/s 707 mmHg 92%

Depois de amanhã, 24 Janeiro, Domingo

Tempo Temperatura Precipitação Vento Pressão Humidade
00:00 +9°C° 0.1 mm 6 m/s 707 mmHg 94%
01:00 +9°C° 0.1 mm 6 m/s 707 mmHg 94%
02:00 +9°C° 0.1 mm 7 m/s 706 mmHg 95%
03:00 +10°C° 0.1 mm 7 m/s 706 mmHg 96%
04:00 +10°C° 0.3 mm 6 m/s 706 mmHg 96%
05:00 +10°C° 0.3 mm 6 m/s 706 mmHg 96%
06:00 +10°C° 0.3 mm 5 m/s 707 mmHg 96%
07:00 +10°C° 0.3 mm 5 m/s 707 mmHg 95%
08:00 +11°C° 0.3 mm 4 m/s 707 mmHg 94%
09:00 +11°C° 0.3 mm 4 m/s 708 mmHg 93%
10:00 +11°C° 0 mm 3 m/s 708 mmHg 86%
11:00 +12°C° 0 mm 3 m/s 708 mmHg 79%
12:00 +12°C° 0 mm 3 m/s 708 mmHg 72%
13:00 +12°C° 0 mm 3 m/s 708 mmHg 72%
14:00 +13°C° 0 mm 4 m/s 708 mmHg 71%
15:00 +13°C° 0 mm 5 m/s 707 mmHg 71%
16:00 +12°C° 0 mm 4 m/s 707 mmHg 76%
17:00 +11°C° 0 mm 3 m/s 707 mmHg 82%
18:00 +10°C° 0 mm 2 m/s 707 mmHg 87%
19:00 +9°C° 0.1 mm 2 m/s 707 mmHg 88%
20:00 +10°C° 0.1 mm 1 m/s 708 mmHg 90%
21:00 +10°C° 0.1 mm 1 m/s 708 mmHg 91%
22:00 +10°C° 0.1 mm 1 m/s 708 mmHg 92%
23:00 +10°C° 0.1 mm 1 m/s 708 mmHg 93%

25 Janeiro, Segunda-feira

Tempo Temperatura Precipitação Vento Pressão Humidade
00:00 +9°C° 0.1 mm 1 m/s 708 mmHg 93%
01:00 +9°C° 0.1 mm 1 m/s 708 mmHg 94%
02:00 +9°C° 0.1 mm 1 m/s 708 mmHg 94%
03:00 +9°C° 0.1 mm 1 m/s 708 mmHg 95%
04:00 +9°C° 0 mm 1 m/s 708 mmHg 95%
05:00 +9°C° 0 mm 1 m/s 708 mmHg 94%
06:00 +9°C° 0 mm 1 m/s 708 mmHg 94%
07:00 +9°C° 0 mm 1 m/s 708 mmHg 92%
08:00 +10°C° 0 mm 1 m/s 709 mmHg 90%
09:00 +10°C° 0 mm 1 m/s 710 mmHg 88%
10:00 +11°C° 0 mm 1 m/s 710 mmHg 85%
11:00 +12°C° 0 mm 1 m/s 710 mmHg 81%
12:00 +13°C° 0 mm 2 m/s 711 mmHg 78%
13:00 +13°C° 0 mm 2 m/s 710 mmHg 78%
14:00 +14°C° 0 mm 2 m/s 710 mmHg 78%
15:00 +14°C° 0 mm 2 m/s 710 mmHg 78%
16:00 +13°C° 0 mm 1 m/s 710 mmHg 82%
17:00 +13°C° 0 mm 1 m/s 710 mmHg 86%
18:00 +12°C° 0 mm 1 m/s 710 mmHg 91%
19:00 +12°C° 0 mm 1 m/s 711 mmHg 91%
20:00 +12°C° 0 mm 1 m/s 711 mmHg 91%
21:00 +12°C° 0 mm 1 m/s 711 mmHg 91%
22:00 +11°C° 0 mm 1 m/s 712 mmHg 91%
23:00 +11°C° 0 mm 1 m/s 712 mmHg 91%

26 Janeiro, Terça-feira

Tempo Temperatura Precipitação Vento Pressão Humidade
00:00 +11°C° 0 mm 1 m/s 712 mmHg 91%
01:00 +10°C° 0 mm 1 m/s 712 mmHg 92%
02:00 +10°C° 0 mm 1 m/s 712 mmHg 92%
03:00 +10°C° 0 mm 1 m/s 712 mmHg 92%
04:00 +10°C° 0 mm 1 m/s 712 mmHg 93%
05:00 +10°C° 0 mm 1 m/s 712 mmHg 93%
06:00 +10°C° 0 mm 1 m/s 712 mmHg 93%
07:00 +11°C° 0 mm 1 m/s 712 mmHg 93%
08:00 +11°C° 0 mm 1 m/s 713 mmHg 93%
09:00 +12°C° 0 mm 1 m/s 714 mmHg 93%
10:00 +13°C° 0 mm 1 m/s 714 mmHg 89%
11:00 +14°C° 0 mm 1 m/s 714 mmHg 85%
12:00 +14°C° 0 mm 2 m/s 714 mmHg 81%
13:00 +15°C° 0 mm 2 m/s 714 mmHg 80%
14:00 +15°C° 0 mm 2 m/s 714 mmHg 78%
15:00 +14°C° 0 mm 3 m/s 714 mmHg 76%
16:00 +14°C° 0 mm 2 m/s 714 mmHg 81%
17:00 +13°C° 0 mm 2 m/s 714 mmHg 85%
18:00 +12°C° 0 mm 2 m/s 714 mmHg 89%
19:00 +12°C° 0 mm 1 m/s 714 mmHg 90%
20:00 +11°C° 0 mm 1 m/s 714 mmHg 91%
21:00 +11°C° 0 mm 1 m/s 714 mmHg 92%
22:00 +11°C° 0 mm 1 m/s 714 mmHg 91%
23:00 +11°C° 0 mm 1 m/s 714 mmHg 90%

27 Janeiro, Quarta-feira

Tempo Temperatura Precipitação Vento Pressão Humidade
00:00 +11°C° 0 mm 1 m/s 714 mmHg 90%
01:00 +11°C° 0 mm 1 m/s 714 mmHg 90%
02:00 +11°C° 0 mm 1 m/s 713 mmHg 90%
03:00 +10°C° 0 mm 1 m/s 713 mmHg 91%
04:00 +10°C° 0 mm 1 m/s 713 mmHg 91%
05:00 +10°C° 0 mm 1 m/s 713 mmHg 92%
06:00 +10°C° 0 mm 1 m/s 713 mmHg 92%
07:00 +11°C° 0 mm 1 m/s 713 mmHg 90%
08:00 +12°C° 0 mm 1 m/s 713 mmHg 89%
09:00 +13°C° 0 mm 1 m/s 714 mmHg 87%
10:00 +14°C° 0 mm 1 m/s 714 mmHg 83%
11:00 +15°C° 0 mm 1 m/s 714 mmHg 78%
12:00 +17°C° 0 mm 2 m/s 714 mmHg 73%
13:00 +17°C° 0 mm 2 m/s 714 mmHg 73%
14:00 +17°C° 0 mm 2 m/s 714 mmHg 73%
15:00 +17°C° 0 mm 2 m/s 714 mmHg 73%
16:00 +16°C° 0 mm 2 m/s 713 mmHg 78%
17:00 +15°C° 0 mm 1 m/s 713 mmHg 84%
18:00 +13°C° 0 mm 1 m/s 713 mmHg 90%
19:00 +13°C° 0 mm 1 m/s 713 mmHg 90%
20:00 +13°C° 0 mm 1 m/s 713 mmHg 90%
21:00 +12°C° 0 mm 1 m/s 714 mmHg 91%
22:00 +12°C° 0 mm 1 m/s 714 mmHg 92%
23:00 +12°C° 0 mm 1 m/s 714 mmHg 93%
Mostrar mais

Necessitamos do seu Consentimento

A Meteoprog e os seus Fornecedores de Serviços podem armazenar e aceder a dados pessoais como cookies, identificadores do dispositivo ou outras tecnologias semelhantes existentes no seu dispositivo e processar estes dados para personalizar conteúdos e anúncios, assim como funcionalidades nas redes sociais e análise de tráfego.

  • Armazenar e/ou aceder a informações no seu dispositivo

    Os cookies, identificadores do dispositivo ou outras informações podem ser armazenados ou acedidos no seu dispositivo, para os fins acima indicados.

  • Anúncios e conteúdos personalizados, medição de anúncios e conteúdos, dados sobre o público-alvo e desenvolvimento de produtos

    Os anúncios e os conteúdos podem ser personalizados com base num perfil. Podem ser adicionados dados adicionais para uma maior personalização dos anúncios e dos conteúdos. A eficácia dos anúncios e dos conteúdos pode ser medida. Podem ser obtidas informações sobre o público que visualizou os anúncios e os conteúdos. Estes dados podem ser usados para desenvolver ou melhorar sistemas, softwares ou a experiência do utilizador.

Ao clicar em "Eu concordo”, permitirá o uso de cookies, identificadores do dispositivo e web beacons mencionados ou outras tecnologias semelhantes. As configurações do navegador do seu dispositivo podem ser alteradas.

Para certos fins, podem ser invocados interesses legítimos ao invés de consentimento. Pode ler mais informação sobre este assunto na nossa Política de Privacidade e Cookies.